Location: Eppenbrunn
(49.1158°N, 7.5601°E)
Time: 04:53:00
(UTC+00:00)

MOS 1-B Rocket - Pass Details

Date: 09 April 2020
Orbit: 891 x 1605 km, 99.1° (Epoch: 01 June)

Event Time Altitude Azimuth Distance (km) Brightness Sun altitude
Rises 23:33:01 0° 14° (NNE) 3,685 8.1 -32.8°
Reaches altitude 10° 23:35:20 10° 14° (NNE) 2,797 7.2 -32.8°
Enters shadow 23:41:18 80° 337° (NNW) 1,135 4.2 -32.8°
